User: anonymous   Login
Location: Unspecified
(54.1780°N, 0.0000°E)
Time: 02:12:04
(UTC+00:00)
Language:

Vanguard 2 - Orbit

View from above orbital plane
View from above orbital plane
View from above satellite
View from above satellite

Ground track
Ground track

The orbit data is extracted from the following two-line orbital elements,

1    11U 59001A   19288.37888664  .00000143  00000-0  62309-4 0  9997
2    11  32.8752 259.2566 1466900 302.3320  44.3434 11.85613949587509
Epoch (UTC): 15 October 2019 09:05:35
Eccentricity: 0.1466900
inclination: 32.8752°
perigee height: 554 km
apogee height: 2937 km
right ascension of ascending node: 259.2566°
argument of perigee: 302.3320°
revolutions per day: 11.85613949
mean anomaly at epoch: 44.3434°
orbit number at epoch: 58750

The dashed part of the orbit path shows where the satellite is in the earth's shadow,  

DLR